Regional Weather Roundup
Issued by NWS Raleigh/Durham, NC

Home | Current Version | Previous Version | Text Only | Print | Product List | Glossary On
Versions: 1 2 3 4 5 6 7 8 9 10 11 12 13 14 15 16 17 18 19 20 21 22 23 24 25 26 27 28 29 30 31 32 33 34 35 36 37 38 39 40 41 42 43 44 45 46 47 48 49 50
000
ASUS42 KRAH 190004
RWRRAH
NORTH CAROLINA WEATHER ROUNDUP
NATIONAL WEATHER SERVICE RALEIGH NC
800 PM EDT THU SEP 18 2014

NOTE: "FAIR" INDICATES FEW OR NO CLOUDS BELOW 12,000 FEET WITH NO
SIGNIFICANT WEATHER AND/OR OBSTRUCTIONS TO VISIBILITY.

NCZ001-053-055-056-065-067-190100-
WESTERN NORTH CAROLINA

CITY           SKY/WX    TMP DP  RH WIND       PRES   REMARKS
ASHEVILLE      CLOUDY    68  60  75 W3        30.04S
JEFFERSON      CLOUDY    61  57  85 CALM      30.09R
HICKORY        CLOUDY    71  64  78 CALM      30.01R
RUTHERFORDTON  NOT AVBL
MOUNT AIRY     CLOUDY    71  64  79 CALM      30.04R
$$

NCZ021-022-025-041-071-084-088-190100-
CENTRAL NORTH CAROLINA

CITY           SKY/WX    TMP DP  RH WIND       PRES   REMARKS
CHARLOTTE      MOCLDY    73  64  73 N5        30.00R
GREENSBORO     CLOUDY    71  63  75 NE3       30.01R
WINSTON-SALEM  CLOUDY    71  63  75 E3        30.02R
RALEIGH-DURHAM MOCLDY    73  60  63 VRB5      30.00R
FORT BRAGG     CLEAR     73  63  70 E2        29.99R
FAYETTEVILLE   CLEAR     73  64  73 E3        29.98R
$$

NCZ011-015-027-028-043-044-047-080-103-190100-
NORTHEASTERN NORTH CAROLINA

CITY           SKY/WX    TMP DP  RH WIND       PRES   REMARKS
ROANOKE RAPIDS CLOUDY    68  63  83 CALM      30.01R
ROCKY MT-WILSO CLEAR     66  62  87 CALM      30.01R
WASHINGTON     CLEAR     68  57  68 CALM      30.02R
ELIZABETH CITY NOT AVBL
MANTEO         CLEAR     69  56  62 E8        30.03R
CAPE HATTERAS  CLEAR     68  57  68 NE8       30.01S
$$

NCZ078-087-090-091-093-098-101-190100-
SOUTHEASTERN NORTH CAROLINA

CITY           SKY/WX    TMP DP  RH WIND       PRES   REMARKS
LUMBERTON      CLEAR     73  66  78 SE5       29.97R
GOLDSBORO      CLEAR     70  67  91 E5        29.98R
KINSTON        CLEAR     72  61  68 E6        30.01R
KENANSVILLE    CLEAR     71  62  73 E3        30.01R
NEW BERN       CLEAR     73  59  61 E7        30.02R
CHERRY POINT   PTCLDY    69  60  73 E7        30.02R
BEAUFORT       CLEAR     72  60  66 NE6       30.02R
JACKSONVILLE   CLEAR     73  60  63 E10       30.01R
WILMINGTON     PTCLDY    74  62  66 E6        30.00R
$$




USA.gov is the U.S. government's official web portal to all federal, state and local government web resources and services.